DW8201 Weather Reports


Display with metric or nautical units.
time (UTC)temp
F
wind
direction
speed
MPH
gust
MPH
rain 1hr
in
rain 24hr
in
rain mn
in
humidity
%
barometer
mb
20260508165730 65 14 2.0 7.0 0.00 0.00 0.00 53 1015.6
20260508165224 64 127 2.0 5.0 0.00 0.00 0.00 53 1015.6
20260508164716 64 58 2.0 5.0 0.00 0.00 0.00 53 1015.5
20260508164308 64 50 2.0 5.0 0.00 0.00 0.00 53 1015.5
20260508163757 65 126 2.0 6.0 0.00 0.00 0.00 53 1015.5
20260508163251 65 111 2.0 6.0 0.00 0.00 0.00 53 1015.5
20260508162745 65 109 2.0 8.0 0.00 0.00 0.00 51 1015.5
20260508162235 65 102 3.0 9.0 0.00 0.00 0.00 50 1015.5
20260508161728 66 89 3.0 9.0 0.00 0.00 0.00 50 1015.6
20260508161615 67 356 3.0 7.0 0.00 0.00 0.00 51 1015.6
20260508160709 67 35 3.0 7.0 0.00 0.00 0.00 51 1015.7
20260508160258 67 64 3.0 9.0 0.00 0.00 0.00 51 1015.6
20260508160044 66 126 3.0 6.0 0.00 0.00 0.00 50 1015.6
20260508155742 67 6 3.0 9.0 0.00 0.00 0.00 52 1015.6
20260508154728 66 37 3.0 7.0 0.00 0.00 0.00 52 1015.7
20260508154619 66 45 3.0 8.0 0.00 0.00 0.00 53 1015.7
20260508153714 66 34 3.0 8.0 0.00 0.00 0.00 55 1015.7
20260508153205 65 69 2.0 7.0 0.00 0.00 0.00 53 1015.8
20260508153053 64 23 3.0 7.0 0.00 0.00 0.00 55 1015.9
20260508152745 65 50 2.0 5.0 0.00 0.00 0.00 53 1015.8
20260508152339 65 332 3.0 7.0 0.00 0.00 0.00 54 1015.8
20260508151535 64 76 3.0 8.0 0.00 0.00 0.00 56 1015.9
20260508151029 64 1 3.0 11.0 0.00 0.00 0.00 56 1016.0
20260508150218 64 65 3.0 11.0 0.00 0.00 0.00 56 1016.0
20260508145710 64 73 3.0 7.0 0.00 0.00 0.00 54 1016.0
20260508145203 65 356 3.0 7.0 0.00 0.00 0.00 52 1016.0
20260508144655 65 65 3.0 8.0 0.00 0.00 0.00 54 1015.9
20260508144245 65 160 2.0 8.0 0.00 0.00 0.00 53 1016.0
20260508143741 65 23 1.0 5.0 0.00 0.00 0.00 52 1016.0
20260508143233 65 356 1.0 5.0 0.00 0.00 0.00 50 1016.0
20260508142724 66 78 2.0 8.0 0.00 0.00 0.00 49 1016.0
20260508142517 67 126 3.0 8.0 0.00 0.00 0.00 50 1016.0
20260508141712 66 73 4.0 10.0 0.00 0.00 0.00 49 1016.0
20260508141205 66 42 4.0 10.0 0.00 0.00 0.00 51 1016.1
20260508140656 67 13 3.0 9.0 0.00 0.00 0.00 49 1016.1
20260508140150 66 58 3.0 7.0 0.00 0.00 0.00 52 1016.2
20260508135643 66 326 3.0 6.0 0.00 0.00 0.00 52 1016.2
20260508134723 65 139 2.0 7.0 0.00 0.00 0.00 51 1016.2
20260508134211 65 109 3.0 7.0 0.00 0.00 0.00 53 1016.2
20260508133701 65 56 3.0 10.0 0.00 0.00 0.00 54 1016.2
20260508133153 65 351 3.0 10.0 0.00 0.00 0.00 56 1016.2
20260508132644 65 137 3.0 7.0 0.00 0.00 0.00 55 1016.2
20260508132235 64 53 3.0 9.0 0.00 0.00 0.00 55 1016.2
20260508131729 64 41 3.0 9.0 0.00 0.00 0.00 56 1016.3
20260508131222 63 23 3.0 9.0 0.00 0.00 0.00 57 1016.3
20260508130715 63 64 3.0 8.0 0.00 0.00 0.00 56 1016.4
20260508130603 63 25 3.0 7.0 0.00 0.00 0.00 59 1016.3
20260508125657 63 127 2.0 7.0 0.00 0.00 0.00 60 1016.4
20260508125146 62 72 2.0 5.0 0.00 0.00 0.00 60 1016.4
20260508124638 62 112 1.0 5.0 0.00 0.00 0.00 61 1016.4
20260508124231 62 93 2.0 6.0 0.00 0.00 0.00 60 1016.5
20260508123724 62 42 2.0 6.0 0.00 0.00 0.00 59 1016.4
20260508123215 62 37 1.0 6.0 0.00 0.00 0.00 61 1016.4
20260508122707 62 43 0.0 0.0 0.00 0.00 0.00 59 1016.5
20260508122158 62 57 0.0 0.0 0.00 0.00 0.00 60 1016.4
20260508122044 62 37 0.0 2.0 0.00 0.00 0.00 60 1016.4
20260508121140 62 346 1.0 5.0 0.00 0.00 0.00 59 1016.4
20260508120633 62 66 2.0 6.0 0.00 0.00 0.00 59 1016.4
20260508120224 62 66 2.0 7.0 0.00 0.00 0.00 59 1016.4
20260508115717 62 85 3.0 7.0 0.00 0.01 0.00 59 1016.4
20260508115207 63 99 2.0 7.0 0.00 0.01 0.00 59 1016.3
20260508115054 63 56 1.0 5.0 0.00 0.01 0.00 58 1016.4
20260508114149 62 110 1.0 4.0 0.00 0.01 0.00 60 1016.3
20260508113645 62 70 1.0 4.0 0.00 0.01 0.00 64 1016.4
20260508113135 62 356 1.0 4.0 0.00 0.01 0.00 62 1016.4
20260508112626 62 62 1.0 6.0 0.00 0.01 0.00 61 1016.4
20260508112218 62 67 2.0 9.0 0.00 0.01 0.00 61 1016.4
20260508112012 62 89 2.0 9.0 0.00 0.01 0.00 58 1016.5
20260508111457 62 99 2.0 5.0 0.00 0.01 0.00 60 1016.5
20260508110648 62 90 3.0 5.0 0.00 0.01 0.00 60 1016.4
20260508110140 62 60 3.0 5.0 0.00 0.01 0.00 60 1016.6
20260508105631 63 52 2.0 5.0 0.00 0.01 0.00 60 1016.5
20260508105125 63 41 1.0 3.0 0.00 0.01 0.00 61 1016.5
20260508104714 63 168 1.0 3.0 0.00 0.01 0.00 62 1016.5
20260508104205 62 128 1.0 3.0 0.00 0.01 0.00 63 1016.5
20260508103658 62 129 2.0 3.0 0.00 0.01 0.00 64 1016.5
20260508103149 62 112 2.0 5.0 0.00 0.01 0.00 64 1016.5
20260508102643 62 204 2.0 6.0 0.00 0.01 0.00 63 1016.5
20260508102135 62 76 2.0 6.0 0.00 0.01 0.00 64 1016.6
20260508101624 62 31 2.0 5.0 0.00 0.01 0.00 66 1016.6
20260508101214 61 1 2.0 7.0 0.00 0.01 0.00 67 1016.6
20260508100709 61 77 3.0 7.0 0.00 0.01 0.00 65 1016.7
20260508100159 61 116 3.0 7.0 0.00 0.01 0.00 67 1016.7
20260508095651 61 35 3.0 7.0 0.00 0.01 0.00 67 1016.7
20260508095138 61 47 2.0 6.0 0.00 0.01 0.00 70 1016.8
20260508094631 60 212 1.0 4.0 0.00 0.01 0.00 68 1016.7
20260508094126 60 333 1.0 6.0 0.00 0.01 0.00 71 1016.7
20260508093621 60 64 2.0 6.0 0.00 0.01 0.00 72 1016.8
20260508093211 59 75 2.0 6.0 0.00 0.01 0.00 74 1016.7
20260508092705 59 68 2.0 6.0 0.00 0.01 0.00 74 1016.7
20260508092154 58 12 2.0 5.0 0.00 0.01 0.00 75 1016.7
20260508091647 58 41 2.0 5.0 0.00 0.01 0.00 76 1016.7
20260508091237 58 356 2.0 5.0 0.00 0.01 0.00 77 1016.7
20260508090633 58 139 2.0 5.0 0.00 0.01 0.00 76 1016.7
20260508090121 58 85 1.0 5.0 0.00 0.01 0.00 76 1016.8
20260508085613 57 62 1.0 5.0 0.00 0.01 0.00 77 1016.7
20260508085104 57 115 1.0 5.0 0.00 0.01 0.00 77 1016.7
20260508085001 57 65 2.0 4.0 0.00 0.01 0.00 77 1016.8
20260508084150 57 91 1.0 6.0 0.00 0.01 0.00 78 1016.8
20260508083737 57 63 1.0 6.0 0.00 0.01 0.00 78 1016.7
20260508083231 56 93 1.0 5.0 0.00 0.01 0.00 78 1016.7
20260508082725 56 6 1.0 5.0 0.00 0.01 0.00 79 1016.7
20260508082220 56 66 1.0 7.0 0.00 0.01 0.00 80 1016.7
20260508081712 56 21 1.0 7.0 0.00 0.01 0.00 79 1016.7
20260508081205 56 23 1.0 4.0 0.00 0.01 0.00 80 1016.7
20260508081006 55 31 1.0 7.0 0.00 0.01 0.00 80 1016.7
20260508080246 55 78 1.0 7.0 0.00 0.01 0.00 81 1016.7
20260508080048 55 48 2.0 7.0 0.00 0.01 0.00 80 1016.7
20260508075233 55 68 3.0 7.0 0.00 0.01 0.00 80 1016.6
20260508074722 55 106 2.0 6.0 0.00 0.01 0.00 80 1016.6
20260508074214 55 93 1.0 5.0 0.00 0.01 0.00 83 1016.6
20260508073704 54 230 1.0 4.0 0.00 0.01 0.00 83 1016.5
20260508073157 54 68 1.0 4.0 0.00 0.01 0.00 82 1016.5
20260508072743 54 104 2.0 5.0 0.00 0.01 0.00 83 1016.5
20260508072234 53 97 2.0 5.0 0.00 0.01 0.00 83 1016.5
20260508071729 53 68 1.0 5.0 0.00 0.01 0.00 84 1016.5
20260508071226 53 88 2.0 5.0 0.00 0.01 0.00 84 1016.5
20260508071027 53 79 2.0 5.0 0.00 0.01 0.00 84 1016.5
20260508070211 52 64 2.0 6.0 0.00 0.01 0.00 86 1016.5
20260508065706 52 48 2.0 6.0 0.00 0.01 0.00 85 1016.5
20260508065155 52 72 2.0 4.0 0.00 0.01 0.00 85 1016.4
20260508064649 52 56 2.0 5.0 0.00 0.01 0.00 86 1016.4
20260508064241 51 36 1.0 4.0 0.00 0.01 0.00 87 1016.3
20260508064235 51 52 2.0 5.0 0.00 0.01 0.00 86 1016.3
20260508063723 51 85 1.0 5.0 0.00 0.01 0.00 86 1016.3
20260508062709 51 38 1.0 4.0 0.00 0.01 0.00 87 1016.4
20260508062204 51 70 1.0 5.0 0.00 0.01 0.00 87 1016.2
20260508061658 50 86 2.0 5.0 0.00 0.01 0.00 88 1016.1
20260508061149 50 50 1.0 5.0 0.00 0.01 0.00 88 1016.2
20260508060654 50 70 1.0 5.0 0.00 0.01 0.00 88 1016.2
20260508060442 50 102 1.0 5.0 0.00 0.01 0.00 88 1016.2
20260508055719 50 93 1.0 3.0 0.00 0.01 0.00 88 1016.1
20260508055211 50 99 1.0 3.0 0.00 0.01 0.00 89 1016.1
20260508054711 49 70 2.0 5.0 0.00 0.01 0.00 89 1016.1
20260508054706 49 69 1.0 4.0 0.00 0.01 0.00 89 1016.1
20260508053655 49 66 2.0 5.0 0.00 0.01 0.00 89 1016.0
20260508053147 49 45 1.0 5.0 0.00 0.01 0.00 89 1016.0
20260508052638 49 62 1.0 4.0 0.00 0.01 0.00 89 1016.0
20260508052132 49 68 0.0 3.0 0.00 0.01 0.00 89 1016.0
20260508051623 49 60 1.0 3.0 0.00 0.01 0.00 89 1015.9
20260508051209 49 62 1.0 3.0 0.00 0.01 0.00 89 1015.9
20260508050702 49 68 1.0 3.0 0.00 0.01 0.00 89 1015.9
20260508050153 49 31 1.0 3.0 0.00 0.01 0.00 89 1015.8
20260508045644 49 320 1.0 3.0 0.00 0.01 0.00 89 1015.9
20260508045139 49 328 1.0 3.0 0.00 0.01 0.00 89 1015.8
20260508044636 49 62 0.0 3.0 0.00 0.01 0.00 89 1015.8
20260508044128 49 53 0.0 1.0 0.00 0.01 0.00 88 1015.7
20260508043624 49 33 0.0 0.0 0.00 0.01 0.00 88 1015.8
20260508043118 49 33 0.0 0.0 0.00 0.01 0.00 88 1015.7
20260508042615 49 59 0.0 0.0 0.00 0.01 0.00 88 1015.7
20260508042107 49 59 0.0 1.0 0.00 0.01 0.00 88 1015.8
20260508041656 49 47 0.0 1.0 0.00 0.01 0.00 88 1015.8
20260508041147 49 47 0.0 2.0 0.00 0.01 0.00 88 1015.7
20260508040643 49 47 0.0 2.0 0.00 0.01 0.00 88 1015.7
20260508040145 49 334 0.0 1.0 0.00 0.01 0.00 87 1015.7
20260508040138 49 60 0.0 1.0 0.00 0.01 0.00 88 1015.7
20260508035122 49 85 0.0 0.0 0.00 0.01 0.00 87 1015.7
20260508034619 49 85 0.0 0.0 0.00 0.01 0.00 87 1015.7
20260508034113 49 91 0.0 0.0 0.00 0.01 0.00 87 1015.6
20260508033609 49 49 0.0 0.0 0.00 0.02 0.00 87 1015.6
20260508033103 49 49 0.0 0.0 0.00 0.02 0.00 87 1015.6
20260508032556 49 48 0.0 3.0 0.00 0.02 0.00 86 1015.6
20260508032142 49 69 0.0 3.0 0.00 0.02 0.00 86 1015.6
20260508031640 49 56 0.0 0.0 0.00 0.02 0.00 86 1015.6
20260508031633 49 43 0.0 0.0 0.00 0.02 0.00 86 1015.7
20260508031332 49 56 0.0 0.0 0.00 0.02 0.00 86 1015.6
20260508030107 49 56 0.0 1.0 0.00 0.02 0.00 86 1015.6
20260508025610 50 45 0.0 2.0 0.00 0.02 0.00 85 1015.5
20260508025102 50 62 0.0 2.0 0.00 0.02 0.00 85 1015.5
20260508024551 50 77 0.0 0.0 0.00 0.02 0.00 85 1015.5
20260508024046 50 77 0.0 0.0 0.00 0.02 0.00 85 1015.5
20260508023634 50 84 0.0 0.0 0.00 0.02 0.00 84 1015.6
20260508023130 50 84 0.0 2.0 0.00 0.02 0.00 84 1015.6
20260508022622 50 84 0.0 2.0 0.00 0.02 0.00 84 1015.6
20260508022115 50 118 0.0 2.0 0.00 0.02 0.00 83 1015.5
20260508021605 51 118 0.0 5.0 0.00 0.02 0.00 83 1015.5
20260508021058 51 134 0.0 5.0 0.00 0.02 0.00 83 1015.5
20260508020554 51 78 0.0 3.0 0.00 0.02 0.00 83 1015.4
20260508020058 51 51 0.0 0.0 0.00 0.02 0.00 82 1015.4
20260508015543 51 63 0.0 0.0 0.00 0.02 0.00 82 1015.4
20260508015034 51 63 0.0 0.0 0.00 0.02 0.00 82 1015.4
20260508014627 51 63 0.0 0.0 0.00 0.02 0.00 82 1015.4
20260508014121 51 55 0.0 0.0 0.00 0.02 0.00 82 1015.5
20260508013615 51 66 0.0 0.0 0.00 0.02 0.00 81 1015.5
20260508013109 51 68 0.0 0.0 0.00 0.02 0.00 82 1015.5
20260508012602 51 68 0.0 0.0 0.00 0.02 0.00 82 1015.5
20260508012056 51 67 0.0 0.0 0.00 0.02 0.00 82 1015.6
20260508011550 51 68 0.0 0.0 0.00 0.02 0.00 81 1015.5
20260508011040 51 67 0.0 0.0 0.00 0.02 0.00 81 1015.5
20260508010531 51 68 0.0 0.0 0.00 0.02 0.00 81 1015.5
20260508010029 51 68 0.0 0.0 0.00 0.02 0.00 81 1015.5
20260508005617 51 68 0.0 0.0 0.00 0.02 0.00 81 1015.6
20260508005109 52 51 0.0 0.0 0.00 0.02 0.00 81 1015.5
20260508004601 52 51 0.0 0.0 0.00 0.02 0.00 81 1015.5
20260508004051 52 51 0.0 0.0 0.00 0.02 0.00 81 1015.6
20260508003543 52 51 0.0 0.0 0.00 0.02 0.00 81 1015.6
20260508003033 52 70 0.0 0.0 0.00 0.02 0.00 81 1015.6
20260508002528 52 75 0.0 0.0 0.00 0.02 0.00 81 1015.6
20260508002020 52 74 0.0 0.0 0.00 0.02 0.00 81 1015.6
20260508001529 52 70 0.0 0.0 0.00 0.02 0.00 81 1015.6
20260508001107 52 70 0.0 0.0 0.00 0.02 0.00 82 1015.6
20260508000601 52 79 0.0 0.0 0.00 0.02 0.00 82 1015.6
20260508000059 52 79 0.0 0.0 0.00 0.02 0.00 82 1015.7
20260507235549 52 99 0.0 0.0 0.00 0.02 0.00 83 1015.8
20260507235039 51 99 0.0 0.0 0.00 0.02 0.00 83 1015.8
20260507234537 51 77 0.0 0.0 0.00 0.02 0.00 85 1015.8
20260507234531 51 99 0.0 0.0 0.00 0.02 0.00 83 1015.8
20260507234022 51 77 0.0 0.0 0.00 0.02 0.00 84 1015.8
20260507233002 51 36 0.0 0.0 0.00 0.02 0.00 86 1015.9
20260507232749 51 10 0.0 0.0 0.00 0.02 0.00 86 1015.8
20260507231958 51 10 0.0 0.0 0.00 0.02 0.00 86 1015.9
20260507231455 51 10 0.0 0.0 0.00 0.02 0.00 86 1015.8
20260507231046 51 10 0.0 0.0 0.00 0.02 0.00 85 1015.8
20260507230545 52 10 0.0 0.0 0.00 0.02 0.00 86 1015.8
20260507230539 51 10 0.0 0.0 0.00 0.02 0.00 85 1015.8
20260507225525 52 10 0.0 0.0 0.00 0.02 0.00 85 1015.9
20260507225016 52 10 0.0 0.0 0.00 0.02 0.00 85 1015.9
20260507224506 52 10 0.0 0.0 0.00 0.02 0.00 85 1015.8
20260507224004 52 10 0.0 0.0 0.00 0.02 0.00 85 1015.9
20260507223958 52 10 0.0 0.0 0.00 0.02 0.00 85 1015.9
20260507222944 52 10 0.0 0.0 0.00 0.02 0.00 84 1015.8
20260507222939 52 10 0.0 0.0 0.00 0.02 0.00 84 1015.9
20260507222527 52 10 0.0 0.0 0.00 0.02 0.00 84 1015.9
20260507221513 52 10 0.0 0.0 0.00 0.02 0.00 84 1015.9
20260507221008 52 10 0.0 0.0 0.00 0.02 0.00 84 1015.9
20260507220449 52 10 0.0 0.0 0.00 0.02 0.00 84 1015.7
20260507215943 52 10 0.0 0.0 0.00 0.02 0.02 84 1015.7
20260507215434 53 10 0.0 0.0 0.00 0.02 0.02 84 1015.6
20260507214929 53 10 0.0 0.0 0.00 0.02 0.02 83 1015.6
20260507214425 53 10 0.0 0.0 0.00 0.02 0.02 83 1015.6
20260507213922 53 10 0.0 0.0 0.00 0.02 0.02 83 1015.6
20260507213515 53 10 0.0 0.0 0.00 0.02 0.02 83 1015.6
20260507213011 53 10 0.0 0.0 0.00 0.02 0.02 83 1015.6
20260507212510 53 10 0.0 0.0 0.00 0.02 0.02 81 1015.5
20260507212505 53 10 0.0 0.0 0.00 0.02 0.02 82 1015.5
20260507212208 53 10 0.0 0.0 0.00 0.02 0.02 82 1015.6
20260507212000 53 10 0.0 0.0 0.00 0.02 0.02 82 1015.6
20260507210446 53 10 0.0 0.0 0.00 0.02 0.02 81 1015.5
20260507210440 53 10 0.0 0.0 0.00 0.02 0.02 81 1015.5
20260507205422 54 10 0.0 0.0 0.00 0.02 0.02 80 1015.5
20260507204914 54 10 0.0 0.0 0.00 0.02 0.02 80 1015.5
20260507204408 54 10 0.0 0.0 0.00 0.02 0.02 80 1015.5
20260507203904 54 10 0.0 0.0 0.00 0.02 0.02 79 1015.4
20260507203401 54 10 0.0 0.0 0.00 0.02 0.02 79 1015.4
20260507202951 54 10 0.0 0.0 0.00 0.02 0.02 79 1015.3
20260507202446 54 10 0.0 0.0 0.00 0.02 0.02 78 1015.3
20260507201932 54 10 0.0 0.0 0.00 0.02 0.02 78 1015.3
20260507201426 55 10 0.0 0.0 0.00 0.02 0.02 77 1015.3
20260507200923 55 10 0.0 0.0 0.00 0.02 0.02 77 1015.2
20260507200918 55 10 0.0 0.0 0.00 0.02 0.02 77 1015.3
20260507195905 55 10 0.0 0.0 0.00 0.02 0.02 77 1015.1
20260507195356 55 10 0.0 0.0 0.00 0.02 0.02 76 1015.1
20260507194851 55 10 0.0 0.0 0.00 0.02 0.02 74 1015.1
20260507194448 56 10 0.0 0.0 0.00 0.02 0.02 72 1015.1
20260507194442 56 10 0.0 0.0 0.00 0.02 0.02 73 1015.1
20260507193425 56 10 0.0 0.0 0.00 0.02 0.02 70 1015.0
20260507192926 56 10 0.0 0.0 0.00 0.02 0.02 70 1015.0
20260507192920 56 10 0.0 0.0 0.00 0.02 0.02 71 1014.9
20260507191903 56 10 0.0 0.0 0.00 0.02 0.02 70 1014.9
20260507191355 57 10 0.0 0.0 0.00 0.02 0.02 69 1014.9
20260507190853 57 10 0.0 0.0 0.00 0.02 0.02 68 1014.9
20260507190849 57 10 0.0 0.0 0.00 0.02 0.02 69 1014.9
20260507190341 57 10 0.0 0.0 0.00 0.02 0.02 68 1014.8
20260507185840 57 10 0.0 0.0 0.00 0.02 0.02 68 1014.9
20260507184922 57 10 0.0 0.0 0.00 0.02 0.02 67 1014.9
20260507184417 58 10 0.0 0.0 0.00 0.02 0.02 66 1015.0
20260507183906 58 10 0.0 0.0 0.00 0.02 0.02 66 1014.9
20260507183358 58 10 0.0 0.0 0.00 0.02 0.02 65 1014.8
20260507182852 58 10 0.0 0.0 0.00 0.02 0.02 65 1014.8
20260507182348 58 10 0.0 0.0 0.00 0.02 0.02 66 1014.8
20260507181851 58 20 0.0 0.0 0.00 0.02 0.02 64 1014.8
20260507181334 58 1 0.0 0.0 0.00 0.02 0.02 64 1014.8
20260507181330 58 6 0.0 0.0 0.00 0.02 0.02 65 1014.8
20260507180414 58 17 0.0 0.0 0.00 0.02 0.02 64 1014.8
20260507175907 59 348 0.0 0.0 0.00 0.02 0.02 63 1014.8
20260507175359 59 15 0.0 0.0 0.00 0.02 0.02 62 1014.8
20260507174852 59 15 0.0 0.0 0.00 0.02 0.02 62 1014.7
20260507174345 59 6 0.0 0.0 0.00 0.02 0.02 62 1014.7
20260507173838 59 1 0.0 2.0 0.00 0.02 0.02 62 1014.6
20260507173331 59 16 0.0 3.0 0.00 0.02 0.02 61 1014.7
20260507172821 59 6 0.0 3.0 0.00 0.02 0.02 60 1014.7
20260507172315 59 345 0.0 0.0 0.00 0.02 0.02 61 1014.6
20260507171809 59 131 0.0 0.0 0.00 0.02 0.02 61 1014.6
20260507171402 59 356 0.0 0.0 0.00 0.02 0.02 60 1014.6
20260507170857 59 356 0.0 0.0 0.00 0.02 0.02 60 1014.6
20260507170350 59 14 0.0 0.0 0.00 0.02 0.02 59 1014.6